Regional Weather Roundup
Issued by NWS

Home | Current Version | Previous Version | Text Only | Print | Product List | Glossary On
Versions: 1 2 3 4 5 6 7 8 9 10 11 12 13 14 15 16 17 18 19 20 21 22 23 24 25 26 27
000
ASUS43 KMPX 170210
RWRMN
WEATHER ROUNDUP FOR MINNESOTA
NATIONAL WEATHER SERVICE TWIN CITIES/CHANHASSEN MN
900 PM CDT WED JUN 16 2021


NOTE: "FAIR" INDICATES FEW OR NO CLOUDS BELOW 12,000 FEET WITH NO
SIGNIFICANT WEATHER AND/OR OBSTRUCTIONS TO VISIBILITY. N/A MEANS
CURRENT SKY AND/OR WEATHER CONDITIONS ARE NOT AVAILABLE.

MNZ060>063-068>070-170300-
   Twin Cities Metro

CITY           SKY/WX    TMP DP  RH WIND       PRES   REMARKS
TWIN CITIES    PTCLDY    82  56  40 SE10      29.88F
ST PAUL        CLEAR     81  56  42 SE9       29.88F
CRYSTAL        CLEAR     83  54  36 SE5       29.87S
BLAINE         MOCLDY    82  52  34 SE5       29.89F
LAKEVILLE      PTCLDY    79  52  38 SE5       29.89F
EDEN PRAIRIE   PTCLDY    82  55  39 S9        29.87F
SOUTH ST PAUL  CLEAR     82  52  35 SE7       29.89F
LAKE ELMO      FAIR      77  55  47 SE9       29.90F
$$
MNZ001>005-007-008-013>017-022>024-027-028-170300-
   Northwest Minnesota

CITY           SKY/WX    TMP DP  RH WIND       PRES   REMARKS
BEMIDJI        MOCLDY    80  58  48 S5        29.87R
HALLOCK        CLEAR     82  50  32 NW12      29.78R
ROSEAU         CLEAR     77  64  65 CALM      29.79R
WARROAD        CLEAR     73  68  83 S10       29.80S
THIEF RVR FALL CLEAR     81  61  50 S10       29.82S
CROOKSTON      CLEAR     81  59  47 S10       29.80S
FOSSTON        CLEAR     77  55  47 S7        29.85S
DETROIT LAKES  CLEAR     79  59  50 S7        29.85S
MOORHEAD       CLEAR     84  55  37 SE8       29.82S
PARK RAPIDS    PTCLDY    80  57  45 S8        29.87F
MAHNOMEN         N/A     78  60  52 S5        29.85S
$$
MNZ006-009>011-018-025>026-170300-
   North Central Minnesota

CITY           SKY/WX    TMP DP  RH WIND       PRES   REMARKS
BAUDETTE       PTCLDY    72  62  71 S8        29.84F
INTL FALLS     MOCLDY    67  61  81 CALM      29.87R
WASKISH        PTCLDY    72  64  78 SE5       29.86S
BIG FORK       MOCLDY    68  63  83 E5        29.96F
LONGVILLE      PTCLDY    75  61  60 CALM      29.90S
GRAND RAPIDS   MOCLDY    72  61  68 E3        29.95R
ORR            LGT RAIN  64  61  88 SE7       29.85F
COOK           TSTM      66  61  82 S6        29.91F
WALKER         CLEAR     77  58  52 SE7       29.88S
$$
MNZ012-019>021-037-170300-
   Northeast Minnesota

CITY           SKY/WX    TMP DP  RH WIND       PRES   REMARKS
DULUTH         PTCLDY    65  47  52 NE5       29.97R
ELY            CLOUDY    72  54  53 SW6       29.99R
HIBBING        CLOUDY    73  57  57 E5        29.97R
DULUTH HARBOR  PTCLDY    61  50  67 NE9       29.95R
TWO HARBORS    MOCLDY    63  45  51 NW5       29.97R
SILVER BAY       N/A     61  34  36 CALM      29.95S
GRAND MARAIS     N/A     57  45  64 CALM      29.96S
G MARAIS ARPRT PTCLDY    55  43  62 CALM      29.99R
$$
MNZ029>031-032-039>041-046>048-054>057-064-170300-
   West Central Minnesota

CITY           SKY/WX    TMP DP  RH WIND       PRES   REMARKS
FERGUS FALLS   CLEAR     81  61  50 SE9       29.81S
WHEATON        MOCLDY    84  61  45 S9        29.82R
MORRIS         CLEAR     81  57  44 SE6       29.84S
ALEXANDRIA     CLEAR     80  59  48 SE8       29.88F
WADENA         CLEAR     79  61  53 SE3       29.87F
GLENWOOD       CLEAR     77  63  61 E6        29.88S
APPLETON       CLEAR     84  61  45 SE3       29.82S
BENSON         CLEAR     81  63  54 SE3       29.84R
ORTONVILLE     MOCLDY    82  66  57 S6        29.82S
MADISON        PTCLDY    84  64  51 CALM      29.83S
WILLMAR        FAIR      82  57  42 SE8       29.87F
$$
MNZ033>034-036-042>043-049>051-058-059-170300-
   Central Minnesota

CITY           SKY/WX    TMP DP  RH WIND       PRES   REMARKS
ST CLOUD       PTCLDY    79  56  45 E5        29.88R
SAUK CENTRE    FAIR      79  58  48 SE9       29.88F
PAYNESVILLE    PTCLDY    81  61  50 SE5       29.88S
AITKIN         PTCLDY    70  61  73 CALM      29.91R
BRAINERD       PTCLDY    78  56  46 SE5       29.91R
STAPLES        CLEAR     81  57  44 E3        29.88F
LONG PRAIRIE   FAIR      77  59  53 E3        29.89F
LITTLE FALLS   CLEAR     77  48  36 E5        29.89F
CAMP RIPLEY    FAIR      79  58  48 SE5       29.90R
LITCHFIELD     PTCLDY    82  57  42 SE5       29.88R
BUFFALO        PTCLDY    80  55  41 MISG      29.89S
MAPLE LAKE     PTCLDY   N/A N/A N/A CALM      29.89R
HUTCHINSON     CLEAR     78  61  54 SE6       29.88F
$$
MNZ037-044-045-052-053-170300-
   East Central Minnesota

CITY           SKY/WX    TMP DP  RH WIND       PRES   REMARKS
PRINCETON      PTCLDY    81  55  41 CALM      29.90R
MORA           CLEAR     75  54  46 S5        29.92R
CAMBRIDGE      PTCLDY    81  57  44 SE5       29.90R
RUSH CITY      PTCLDY    76  55  48 SE5       29.91R
MOOSE LAKE     PTCLDY    72  57  60 CALM      29.90R
HINCKLEY       PTCLDY    75  57  53 SE3       29.91F
CLOQUET        PTCLDY    63  48  59 CALM      29.94R
MCGREGOR       PTCLDY    73  61  64 CALM      29.93
$$
MNZ071>073-080-081-089-090-097-098-170300-
   Southwest Minnesota

CITY           SKY/WX    TMP DP  RH WIND       PRES   REMARKS
MONTEVIDEO     PTCLDY    82  57  42 CALM      29.83R
GRANITE FALLS  CLEAR     84  62  46 SE6       29.83R
CANBY          PTCLDY    80  66  61 CALM      29.83R
MARSHALL       CLOUDY    82  63  52 S13       29.82R
REDWOOD FALLS  PTCLDY    83  60  45 SE13      29.83R
OLIVIA         PTCLDY    82  57  42 SE9       29.84S
PIPESTONE      CLEAR     81  61  50 S20G28    29.86S
WINDOM         CLOUDY    82  61  47 SW14      29.84F
WORTHINGTON    CLOUDY    75  62  64 S15G23    29.86F
JACKSON        CLOUDY    84  54  34 NW13      29.85R
TRACY          MOCLDY    82  57  42 S15       29.82S
SLAYTON        PTCLDY    74  55  50 S13       29.87F
$$
MNZ065>067-074>077-082>085-091>093-170300-
   South Central Minnesota

CITY           SKY/WX    TMP DP  RH WIND       PRES   REMARKS
MANKATO        MOCLDY    84  56  38 S10       29.90R
NEW ULM        MOCLDY    82  55  39 SE6       29.87S
ST JAMES       CLOUDY    82  55  39 SE7       29.86R
FAIRMONT       CLOUDY    84  59  42 S20G29    29.83F
GLENCOE        PTCLDY    82  57  42 SE6       29.88R
FARIBAULT      MOCLDY    81  54  39 SE7       29.90S
OWATONNA       MOCLDY    81  54  39 SE10      29.91F
ALBERT LEA     CLOUDY    81  55  41 S13       29.90F
$$
MNZ078>079-086>088-094>096-170300-
   Southeast Minnesota

CITY           SKY/WX    TMP DP  RH WIND       PRES   REMARKS
ROCHESTER      PTCLDY    76  53  44 S8        29.95F
RED WING       PTCLDY    79  54  41 SE7       29.90S
STANTON        PTCLDY    81  52  36 SE7       29.89F
DODGE CENTER     N/A     79  48  34 SE8       29.93F
WINONA         PTCLDY    75  57  53 SE6       29.94F
AUSTIN         MOCLDY    81  54  39 S6        29.94F
$$
ABBREVIATIONS USED IN REMARKS
   TC - TEMPERATURES IN CELSIUS
  WCI - WIND CHILL INDEX
   HX - HEAT INDEX
  VSB - VISIBILITY
$$



USA.gov is the U.S. government's official web portal to all federal, state and local government web resources and services.